Location: Poughquag
(41.6090°N, 73.6820°W)
Time: 07:19:06
(UTC-04:00)

Vanguard 2 - All Passes

Search period start: 29 May 2020 00:00
Search period end: 08 June 2020 00:00
Orbit: 553 x 2938 km, 32.9° (Epoch: 29 May)

Date Brightness Start Highest point End Pass type
(mag) Time Alt. Az. Time Alt. Az. Time Alt. Az.
29 May - 01:46:42 10° SW 01:48:23 12° SSW 01:49:56 10° S night (unlit)
29 May - 17:24:48 10° S 17:31:48 15° SSE 17:37:34 10° ESE daylight
29 May - 19:31:14 10° SW 19:41:36 31° SSE 19:48:31 10° ESE daylight
29 May - 21:41:49 10° WSW 21:50:41 41° S 21:56:14 10° ESE visible
29 May - 23:53:01 10° WSW 23:58:43 29° SSW 00:02:49 10° SE visible
30 May - 17:39:57 10° SSW 17:49:39 21° SSE 17:57:02 10° ESE daylight
30 May - 19:48:23 10° SW 19:59:27 37° SSE 20:06:32 10° ESE daylight
30 May - 21:59:38 10° WSW 22:08:26 43° S 22:13:57 10° ESE visible
31 May - 00:11:07 10° WSW 00:16:16 24° SSW 00:20:06 10° SSE visible
31 May - 17:56:02 10° SSW 18:07:29 27° SSE 18:15:42 10° ESE daylight
31 May - 20:05:50 10° SW 20:17:18 43° S 20:24:25 10° ESE daylight
31 May - 22:17:33 10° WSW 22:26:10 42° S 22:31:35 10° ESE visible
01 Jun - 00:29:26 10° WSW 00:33:44 19° SSW 00:37:07 10° SSE visible
01 Jun - 16:07:04 10° S 16:15:04 16° SE 16:21:55 10° ESE daylight
01 Jun - 18:12:41 10° SW 18:25:20 34° SSE 18:33:59 10° E daylight
01 Jun - 20:23:29 10° WSW 20:35:07 47° S 20:42:13 10° ESE daylight
01 Jun - 22:35:31 10° W 22:43:50 39° SSW 22:49:08 10° SE visible
02 Jun - 00:48:11 10° WSW 00:51:07 14° SW 00:53:37 10° S visible
02 Jun - 16:21:53 10° S 16:32:49 22° SSE 16:41:38 10° ESE daylight
02 Jun - 18:29:44 10° SW 18:43:10 40° SSE 18:52:04 10° E daylight
02 Jun - 20:41:17 10° WSW 20:52:55 49° S 20:59:57 10° ESE visible
02 Jun - 22:53:35 10° W 23:01:25 34° SSW 23:06:34 10° SE visible
03 Jun - 16:37:44 10° SSW 16:50:36 28° SSE 17:00:28 10° E daylight
03 Jun - 18:47:04 10° SW 19:01:01 46° SSE 19:09:59 10° E daylight
03 Jun - 20:59:11 10° WSW 21:10:41 50° S 21:17:38 10° ESE visible
03 Jun - 23:11:44 10° W 23:18:56 29° SSW 23:23:49 10° SSE visible
04 Jun - 14:50:10 10° SSE 14:57:55 15° SE 15:04:58 10° ESE daylight
04 Jun - 16:54:12 10° SSW 17:08:22 34° SSE 17:18:53 10° E daylight
04 Jun - 19:04:38 10° WSW 19:18:51 50° S 19:27:50 10° E daylight
04 Jun - 21:17:10 10° W 21:28:25 48° SSW 21:35:15 10° ESE visible
04 Jun - 23:30:05 10° W 23:36:20 23° SW 23:40:49 10° SSE visible
05 Jun - 15:04:25 10° S 15:15:32 20° SE 15:25:16 10° ESE daylight
05 Jun - 17:11:04 10° SW 17:26:10 41° SSE 17:37:03 10° E daylight
05 Jun - 19:22:22 10° WSW 19:36:42 54° S 19:45:38 10° ESE daylight
05 Jun - 21:35:12 10° W 21:46:05 44° SSW 21:52:47 10° SE visible
05 Jun - 23:48:46 10° WSW 23:53:37 17° SW 23:57:24 10° S visible
06 Jun - 15:19:57 10° SSW 15:33:11 27° SSE 15:44:24 10° E daylight
06 Jun - 17:28:16 10° SW 17:43:59 47° SSE 17:55:03 10° E daylight
06 Jun - 19:40:15 10° WSW 19:54:31 55° S 20:03:21 10° ESE daylight
06 Jun - 21:53:19 10° W 22:03:40 39° SSW 22:10:11 10° SE visible
07 Jun - 00:08:27 10° WSW 00:10:50 12° SW 00:12:55 10° SSW visible
07 Jun - 13:34:58 10° SSE 13:40:34 12° SE 13:46:03 10° ESE daylight
07 Jun - 15:36:11 10° SSW 15:50:51 33° SSE 16:03:01 10° E daylight
07 Jun - 17:45:43 10° WSW 18:01:50 52° SSE 18:12:57 10° E daylight
07 Jun - 19:58:12 10° W 20:12:19 55° S 20:21:02 10° ESE daylight
07 Jun - 22:11:32 10° W 22:21:08 33° SSW 22:27:24 10° SSE visible
